Year,Month,Day,Hour,Minute,Value (Times are PST for temperature in C)
2007,07,02,00,00,16.40
2007,07,02,00,01,16.40
2007,07,02,00,02,16.40
2007,07,02,00,03,16.50
2007,07,02,00,04,16.50
2007,07,02,00,05,16.50
2007,07,02,00,06,16.50
2007,07,02,00,07,16.50
2007,07,02,00,08,16.50
2007,07,02,00,09,16.40
2007,07,02,00,10,16.40
2007,07,02,00,11,16.30
2007,07,02,00,12,16.30
2007,07,02,00,13,16.20
2007,07,02,00,14,16.20
2007,07,02,00,15,16.20
2007,07,02,00,16,16.20
2007,07,02,00,17,16.20
2007,07,02,00,18,16.10
2007,07,02,00,19,16.10
2007,07,02,00,20,16.10
2007,07,02,00,21,16.10
2007,07,02,00,22,16.10
2007,07,02,00,23,16.10
2007,07,02,00,24,16.00
2007,07,02,00,25,16.00
2007,07,02,00,26,16.00
2007,07,02,00,27,16.00
2007,07,02,00,28,16.00
2007,07,02,00,29,15.90
2007,07,02,00,30,15.90
2007,07,02,00,31,15.90
2007,07,02,00,32,15.90
2007,07,02,00,33,15.90
2007,07,02,00,34,15.80
2007,07,02,00,35,15.80
2007,07,02,00,36,15.80
2007,07,02,00,37,15.80
2007,07,02,00,38,15.70
2007,07,02,00,39,15.70
2007,07,02,00,40,15.70
2007,07,02,00,41,15.70
2007,07,02,00,42,15.70
2007,07,02,00,43,15.70
2007,07,02,00,44,15.70
2007,07,02,00,45,15.70
2007,07,02,00,46,15.60
2007,07,02,00,47,15.60
2007,07,02,00,48,15.60
2007,07,02,00,49,15.60
2007,07,02,00,50,15.60
2007,07,02,00,51,15.60
2007,07,02,00,52,15.60
2007,07,02,00,53,15.50
2007,07,02,00,54,15.50
2007,07,02,00,55,15.40
2007,07,02,00,56,15.40
2007,07,02,00,57,15.40
2007,07,02,00,58,15.40
2007,07,02,00,59,15.40
2007,07,02,01,00,15.30
2007,07,02,01,01,15.30
2007,07,02,01,02,15.30
2007,07,02,01,03,15.30
2007,07,02,01,04,15.30
2007,07,02,01,05,15.20
2007,07,02,01,06,15.20
2007,07,02,01,07,15.20
2007,07,02,01,08,15.20
2007,07,02,01,09,15.20
2007,07,02,01,10,15.10
2007,07,02,01,11,15.10
2007,07,02,01,12,15.10
2007,07,02,01,13,15.10
2007,07,02,01,14,15.10
2007,07,02,01,15,15.10
2007,07,02,01,16,15.10
2007,07,02,01,17,15.00
2007,07,02,01,18,15.00
2007,07,02,01,19,15.10
2007,07,02,01,20,15.10
2007,07,02,01,21,15.10
2007,07,02,01,22,15.10
2007,07,02,01,23,15.10
2007,07,02,01,24,15.10
2007,07,02,01,25,15.10
2007,07,02,01,26,15.10
2007,07,02,01,27,15.10
2007,07,02,01,28,15.10
2007,07,02,01,29,15.10
2007,07,02,01,30,15.00
2007,07,02,01,31,15.00
2007,07,02,01,32,15.00
2007,07,02,01,33,15.00
2007,07,02,01,34,15.00
2007,07,02,01,35,15.00
2007,07,02,01,36,15.00
2007,07,02,01,37,15.00
2007,07,02,01,38,15.00
2007,07,02,01,39,15.00
2007,07,02,01,40,14.90
2007,07,02,01,41,14.90
2007,07,02,01,42,14.80
2007,07,02,01,43,14.80
2007,07,02,01,44,14.80
2007,07,02,01,45,14.70
2007,07,02,01,46,14.60
2007,07,02,01,47,14.60
2007,07,02,01,48,14.50
2007,07,02,01,49,14.50
2007,07,02,01,50,14.40
2007,07,02,01,51,14.40
2007,07,02,01,52,14.30
2007,07,02,01,53,14.30
2007,07,02,01,54,14.30
2007,07,02,01,55,14.30
2007,07,02,01,56,14.20
2007,07,02,01,57,14.20
2007,07,02,01,58,14.20
2007,07,02,01,59,14.20
2007,07,02,02,00,14.20
2007,07,02,02,01,14.10
2007,07,02,02,02,14.10
2007,07,02,02,03,14.10
2007,07,02,02,04,14.10
2007,07,02,02,05,14.10
2007,07,02,02,06,14.10
2007,07,02,02,07,14.00
2007,07,02,02,08,14.00
2007,07,02,02,09,14.00
2007,07,02,02,10,14.00
2007,07,02,02,11,14.00
2007,07,02,02,12,14.00
2007,07,02,02,13,13.90
2007,07,02,02,14,13.90
2007,07,02,02,15,13.90
2007,07,02,02,16,13.90
2007,07,02,02,17,13.90
2007,07,02,02,18,13.90
2007,07,02,02,19,13.90
2007,07,02,02,20,13.90
2007,07,02,02,21,13.90
2007,07,02,02,22,13.90
2007,07,02,02,23,14.00
2007,07,02,02,24,14.00
2007,07,02,02,25,14.10
2007,07,02,02,26,14.10
2007,07,02,02,27,14.20
2007,07,02,02,28,14.20
2007,07,02,02,29,14.30
2007,07,02,02,30,14.40
2007,07,02,02,31,14.40
2007,07,02,02,32,14.40
2007,07,02,02,33,14.50
2007,07,02,02,34,14.50
2007,07,02,02,35,14.50
2007,07,02,02,36,14.50
2007,07,02,02,37,14.50
2007,07,02,02,38,14.50
2007,07,02,02,39,14.50
2007,07,02,02,40,14.50
2007,07,02,02,41,14.50
2007,07,02,02,42,14.50
2007,07,02,02,43,14.50
2007,07,02,02,44,14.50
2007,07,02,02,45,14.50
2007,07,02,02,46,14.40
2007,07,02,02,47,14.40
2007,07,02,02,48,14.50
2007,07,02,02,49,14.50
2007,07,02,02,50,14.50
2007,07,02,02,51,14.50
2007,07,02,02,52,14.50
2007,07,02,02,53,14.50
2007,07,02,02,54,14.60
2007,07,02,02,55,14.60
2007,07,02,02,56,14.60
2007,07,02,02,57,14.60
2007,07,02,02,58,14.60
2007,07,02,02,59,14.60
2007,07,02,03,00,14.60
2007,07,02,03,01,14.60
2007,07,02,03,02,14.60
2007,07,02,03,03,14.60
2007,07,02,03,04,14.60
2007,07,02,03,05,14.60
2007,07,02,03,06,14.60
2007,07,02,03,07,14.60
2007,07,02,03,08,14.60
2007,07,02,03,09,14.60
2007,07,02,03,10,14.60
2007,07,02,03,11,14.60
2007,07,02,03,12,14.50
2007,07,02,03,13,14.50
2007,07,02,03,14,14.50
2007,07,02,03,15,14.50
2007,07,02,03,16,14.40
2007,07,02,03,17,14.40
2007,07,02,03,18,14.40
2007,07,02,03,19,14.40
2007,07,02,03,20,14.40
2007,07,02,03,21,14.40
2007,07,02,03,22,14.40
2007,07,02,03,23,14.40
2007,07,02,03,24,14.40
2007,07,02,03,25,14.40
2007,07,02,03,26,14.40
2007,07,02,03,27,14.50
2007,07,02,03,28,14.50
2007,07,02,03,29,14.50
2007,07,02,03,30,14.50
2007,07,02,03,31,14.60
2007,07,02,03,32,14.60
2007,07,02,03,33,14.60
2007,07,02,03,34,14.60
2007,07,02,03,35,14.50
2007,07,02,03,36,14.50
2007,07,02,03,37,14.50
2007,07,02,03,38,14.50
2007,07,02,03,39,14.50
2007,07,02,03,40,14.50
2007,07,02,03,41,14.50
2007,07,02,03,42,14.40
2007,07,02,03,43,14.40
2007,07,02,03,44,14.40
2007,07,02,03,45,14.40
2007,07,02,03,46,14.40
2007,07,02,03,47,14.40
2007,07,02,03,48,14.40
2007,07,02,03,49,14.30
2007,07,02,03,50,14.30
2007,07,02,03,51,14.30
2007,07,02,03,52,14.30
2007,07,02,03,53,14.20
2007,07,02,03,54,14.20
2007,07,02,03,55,14.10
2007,07,02,03,56,14.10
2007,07,02,03,57,14.10
2007,07,02,03,58,14.10
2007,07,02,03,59,14.10
2007,07,02,04,00,14.10
2007,07,02,04,01,14.10
2007,07,02,04,02,14.10
2007,07,02,04,03,14.10
2007,07,02,04,04,14.10
2007,07,02,04,05,14.10
2007,07,02,04,06,14.10
2007,07,02,04,07,14.00
2007,07,02,04,08,14.00
2007,07,02,04,09,13.90
2007,07,02,04,10,13.90
2007,07,02,04,11,13.90
2007,07,02,04,12,13.90
2007,07,02,04,13,13.80
2007,07,02,04,14,13.80
2007,07,02,04,15,13.80
2007,07,02,04,16,13.80
2007,07,02,04,17,13.80
2007,07,02,04,18,13.80
2007,07,02,04,19,13.80
2007,07,02,04,20,13.80
2007,07,02,04,21,13.80
2007,07,02,04,22,13.80
2007,07,02,04,23,13.80
2007,07,02,04,24,13.80
2007,07,02,04,25,13.80
2007,07,02,04,26,13.80
2007,07,02,04,27,13.80
2007,07,02,04,28,13.80
2007,07,02,04,29,13.80
2007,07,02,04,30,13.80
2007,07,02,04,31,13.80
2007,07,02,04,32,13.80
2007,07,02,04,33,13.80
2007,07,02,04,34,13.70
2007,07,02,04,35,13.70
2007,07,02,04,36,13.70
2007,07,02,04,37,13.70
2007,07,02,04,38,13.70
2007,07,02,04,39,13.70
2007,07,02,04,40,13.70
2007,07,02,04,41,13.70
2007,07,02,04,42,13.70
2007,07,02,04,43,13.70
2007,07,02,04,44,13.70
2007,07,02,04,45,13.70
2007,07,02,04,46,13.70
2007,07,02,04,47,13.70
2007,07,02,04,48,13.70
2007,07,02,04,49,13.60
2007,07,02,04,50,13.60
2007,07,02,04,51,13.50
2007,07,02,04,52,13.40
2007,07,02,04,53,13.40
2007,07,02,04,54,13.40
2007,07,02,04,55,13.40
2007,07,02,04,56,13.40
2007,07,02,04,57,13.40
2007,07,02,04,58,13.40
2007,07,02,04,59,13.30
2007,07,02,05,00,13.30
2007,07,02,05,01,13.30
2007,07,02,05,02,13.30
2007,07,02,05,03,13.30
2007,07,02,05,04,13.30
2007,07,02,05,05,13.20
2007,07,02,05,06,13.20
2007,07,02,05,07,13.20
2007,07,02,05,08,13.10
2007,07,02,05,09,13.10
2007,07,02,05,10,13.00
2007,07,02,05,11,13.00
2007,07,02,05,12,12.90
2007,07,02,05,13,12.90
2007,07,02,05,14,12.80
2007,07,02,05,15,12.80
2007,07,02,05,16,12.80
2007,07,02,05,17,12.80
2007,07,02,05,18,12.80
2007,07,02,05,19,12.80
2007,07,02,05,20,12.80
2007,07,02,05,21,12.70
2007,07,02,05,22,12.70
2007,07,02,05,23,12.70
2007,07,02,05,24,12.70
2007,07,02,05,25,12.70
2007,07,02,05,26,12.70
2007,07,02,05,27,12.70
2007,07,02,05,28,12.60
2007,07,02,05,29,12.60
2007,07,02,05,30,12.60
2007,07,02,05,31,12.60
2007,07,02,05,32,12.60
2007,07,02,05,33,12.60
2007,07,02,05,34,12.60
2007,07,02,05,35,12.60
2007,07,02,05,36,12.60
2007,07,02,05,37,12.60
2007,07,02,05,38,12.60
2007,07,02,05,39,12.60
2007,07,02,05,40,12.60
2007,07,02,05,41,12.60
2007,07,02,05,42,12.60
2007,07,02,05,43,12.60
2007,07,02,05,44,12.70
2007,07,02,05,45,12.70
2007,07,02,05,46,12.70
2007,07,02,05,47,12.70
2007,07,02,05,48,12.70
2007,07,02,05,49,12.70
2007,07,02,05,50,12.70
2007,07,02,05,51,12.80
2007,07,02,05,52,12.80
2007,07,02,05,53,12.80
2007,07,02,05,54,12.80
2007,07,02,05,55,12.80
2007,07,02,05,56,12.90
2007,07,02,05,57,12.90
2007,07,02,05,58,12.90
2007,07,02,05,59,12.90
2007,07,02,06,00,12.90
2007,07,02,06,01,13.00
2007,07,02,06,02,13.00
2007,07,02,06,03,13.00
2007,07,02,06,04,13.00
2007,07,02,06,05,13.10
2007,07,02,06,06,13.10
2007,07,02,06,07,13.10
2007,07,02,06,08,13.10
2007,07,02,06,09,13.10
2007,07,02,06,10,13.10
2007,07,02,06,11,13.10
2007,07,02,06,12,13.10
2007,07,02,06,13,13.10
2007,07,02,06,14,13.10
2007,07,02,06,15,13.20
2007,07,02,06,16,13.20
2007,07,02,06,17,13.20
2007,07,02,06,18,13.20
2007,07,02,06,19,13.30
2007,07,02,06,20,13.30
2007,07,02,06,21,13.30
2007,07,02,06,22,13.30
2007,07,02,06,23,13.30
2007,07,02,06,24,13.40
2007,07,02,06,25,13.40
2007,07,02,06,26,13.40
2007,07,02,06,27,13.40
2007,07,02,06,28,13.40
2007,07,02,06,29,13.40
2007,07,02,06,30,13.50
2007,07,02,06,31,13.50
2007,07,02,06,32,13.50
2007,07,02,06,33,13.50
2007,07,02,06,34,13.60
2007,07,02,06,35,13.60
2007,07,02,06,36,13.60
2007,07,02,06,37,13.60
2007,07,02,06,38,13.60
2007,07,02,06,39,13.60
2007,07,02,06,40,13.70
2007,07,02,06,41,13.70
2007,07,02,06,42,13.70
2007,07,02,06,43,13.70
2007,07,02,06,44,13.70
2007,07,02,06,45,13.80
2007,07,02,06,46,13.80
2007,07,02,06,47,13.80
2007,07,02,06,48,13.80
2007,07,02,06,49,13.90
2007,07,02,06,50,13.90
2007,07,02,06,51,13.90
2007,07,02,06,52,14.00
2007,07,02,06,53,14.00
2007,07,02,06,54,14.10
2007,07,02,06,55,14.10
2007,07,02,06,56,14.20
2007,07,02,06,57,14.20
2007,07,02,06,58,14.30
2007,07,02,06,59,14.30
2007,07,02,07,00,14.40
2007,07,02,07,01,14.50
2007,07,02,07,02,14.60
2007,07,02,07,03,14.60
2007,07,02,07,04,14.70
2007,07,02,07,05,14.80
2007,07,02,07,06,14.90
2007,07,02,07,07,15.00
2007,07,02,07,08,15.00
2007,07,02,07,09,15.00
2007,07,02,07,10,15.20
2007,07,02,07,11,15.30
2007,07,02,07,12,15.30
2007,07,02,07,13,15.40
2007,07,02,07,14,15.40
2007,07,02,07,15,15.50
2007,07,02,07,16,15.60
2007,07,02,07,17,15.70
2007,07,02,07,18,15.70
2007,07,02,07,19,15.80
2007,07,02,07,20,15.90
2007,07,02,07,21,15.90
2007,07,02,07,22,16.00
2007,07,02,07,23,16.10
2007,07,02,07,24,16.10
2007,07,02,07,25,16.20
2007,07,02,07,26,16.20
2007,07,02,07,27,16.30
2007,07,02,07,28,16.30
2007,07,02,07,29,16.30
2007,07,02,07,30,16.30
2007,07,02,07,31,16.30
2007,07,02,07,32,16.30
2007,07,02,07,33,16.30
2007,07,02,07,34,16.30
2007,07,02,07,35,16.30
2007,07,02,07,36,16.30
2007,07,02,07,37,16.20
2007,07,02,07,38,16.20
2007,07,02,07,39,16.20
2007,07,02,07,40,16.20
2007,07,02,07,41,16.20
2007,07,02,07,42,16.20
2007,07,02,07,43,16.20
2007,07,02,07,44,16.20
2007,07,02,07,45,16.30
2007,07,02,07,46,16.30
2007,07,02,07,47,16.30
2007,07,02,07,48,16.30
2007,07,02,07,49,16.30
2007,07,02,07,50,16.30
2007,07,02,07,51,16.30
2007,07,02,07,52,16.30
2007,07,02,07,53,16.30
2007,07,02,07,54,16.30
2007,07,02,07,55,16.30
2007,07,02,07,56,16.30
2007,07,02,07,57,16.30
2007,07,02,07,58,16.40
2007,07,02,07,59,16.40
2007,07,02,08,00,16.40
2007,07,02,08,01,16.40
2007,07,02,08,02,16.40
2007,07,02,08,03,16.50
2007,07,02,08,04,16.50
2007,07,02,08,05,16.50
2007,07,02,08,06,16.60
2007,07,02,08,07,16.60
2007,07,02,08,08,16.60
2007,07,02,08,09,16.60
2007,07,02,08,10,16.70
2007,07,02,08,11,16.70
2007,07,02,08,12,16.70
2007,07,02,08,13,16.70
2007,07,02,08,14,16.70
2007,07,02,08,15,16.70
2007,07,02,08,16,16.70
2007,07,02,08,17,16.70
2007,07,02,08,18,16.80
2007,07,02,08,19,16.80
2007,07,02,08,20,16.80
2007,07,02,08,21,16.80
2007,07,02,08,22,16.80
2007,07,02,08,23,16.90
2007,07,02,08,24,16.90
2007,07,02,08,25,16.90
2007,07,02,08,26,16.90
2007,07,02,08,27,16.90
2007,07,02,08,28,16.90
2007,07,02,08,29,17.00
2007,07,02,08,30,16.90
2007,07,02,08,31,16.90
2007,07,02,08,32,16.90
2007,07,02,08,33,16.90
2007,07,02,08,34,17.00
2007,07,02,08,35,17.00
2007,07,02,08,36,17.00
2007,07,02,08,37,16.90
2007,07,02,08,38,16.90
2007,07,02,08,39,16.90
2007,07,02,08,40,16.90
2007,07,02,08,41,16.90
2007,07,02,08,42,16.90
2007,07,02,08,43,16.90
2007,07,02,08,44,16.90
2007,07,02,08,45,17.00
2007,07,02,08,46,17.00
2007,07,02,08,47,17.00
2007,07,02,08,48,17.10
2007,07,02,08,49,17.10
2007,07,02,08,50,17.10
2007,07,02,08,51,17.20
2007,07,02,08,52,17.20
2007,07,02,08,53,17.30
2007,07,02,08,54,17.30
2007,07,02,08,55,17.40
2007,07,02,08,56,17.40
2007,07,02,08,57,17.40
2007,07,02,08,58,17.40
2007,07,02,08,59,17.40
2007,07,02,09,00,17.40
2007,07,02,09,01,17.40
2007,07,02,09,02,17.30
2007,07,02,09,03,17.30
2007,07,02,09,04,17.30
2007,07,02,09,05,17.40
2007,07,02,09,06,17.40
2007,07,02,09,07,17.40
2007,07,02,09,08,17.40
2007,07,02,09,09,17.40
2007,07,02,09,10,17.40
2007,07,02,09,11,17.40
2007,07,02,09,12,17.40
2007,07,02,09,13,17.40
2007,07,02,09,14,17.30
2007,07,02,09,15,17.30
2007,07,02,09,16,17.30
2007,07,02,09,17,17.30
2007,07,02,09,18,17.40
2007,07,02,09,19,17.40
2007,07,02,09,20,17.40
2007,07,02,09,21,17.40
2007,07,02,09,22,17.40
2007,07,02,09,23,17.40
2007,07,02,09,24,17.40
2007,07,02,09,25,17.30
2007,07,02,09,26,17.30
2007,07,02,09,27,17.30
2007,07,02,09,28,17.30
2007,07,02,09,29,17.30
2007,07,02,09,30,17.40
2007,07,02,09,31,17.40
2007,07,02,09,32,17.30
2007,07,02,09,33,17.30
2007,07,02,09,34,17.30
2007,07,02,09,35,17.30
2007,07,02,09,36,17.30
2007,07,02,09,37,17.20
2007,07,02,09,38,17.20
2007,07,02,09,39,17.20
2007,07,02,09,40,17.20
2007,07,02,09,41,17.20
2007,07,02,09,42,17.20
2007,07,02,09,43,17.30
2007,07,02,09,44,17.30
2007,07,02,09,45,17.30
2007,07,02,09,46,17.30
2007,07,02,09,47,17.30
2007,07,02,09,48,17.40
2007,07,02,09,49,17.40
2007,07,02,09,50,17.40
2007,07,02,09,51,17.50
2007,07,02,09,52,17.60
2007,07,02,09,53,17.70
2007,07,02,09,54,17.80
2007,07,02,09,55,17.90
2007,07,02,09,56,17.90
2007,07,02,09,57,18.00
2007,07,02,09,58,18.10
2007,07,02,09,59,18.20
2007,07,02,10,00,18.30
2007,07,02,10,01,18.40
2007,07,02,10,02,18.50
2007,07,02,10,03,18.50
2007,07,02,10,04,18.60
2007,07,02,10,05,18.70
2007,07,02,10,06,18.80
2007,07,02,10,07,18.90
2007,07,02,10,08,19.00
2007,07,02,10,09,19.10
2007,07,02,10,10,19.20
2007,07,02,10,11,19.30
2007,07,02,10,12,19.30
2007,07,02,10,13,19.40
2007,07,02,10,14,19.40
2007,07,02,10,15,19.50
2007,07,02,10,16,19.40
2007,07,02,10,17,19.30
2007,07,02,10,18,19.30
2007,07,02,10,19,19.20
2007,07,02,10,20,19.20
2007,07,02,10,21,19.20
2007,07,02,10,22,19.10
2007,07,02,10,23,19.10
2007,07,02,10,24,19.00
2007,07,02,10,25,18.90
2007,07,02,10,26,18.80
2007,07,02,10,27,18.80
2007,07,02,10,28,18.80
2007,07,02,10,29,18.80
2007,07,02,10,30,18.70
2007,07,02,10,31,18.70
2007,07,02,10,32,18.70
2007,07,02,10,33,18.70
2007,07,02,10,34,18.60
2007,07,02,10,35,18.60
2007,07,02,10,36,18.60
2007,07,02,10,37,18.60
2007,07,02,10,38,18.60
2007,07,02,10,39,18.70
2007,07,02,10,40,18.60
2007,07,02,10,41,18.60
2007,07,02,10,42,18.60
2007,07,02,10,43,18.60
2007,07,02,10,44,18.60
2007,07,02,10,45,18.60
2007,07,02,10,46,18.60
2007,07,02,10,47,18.60
2007,07,02,10,48,18.70
2007,07,02,10,49,18.70
2007,07,02,10,50,18.70
2007,07,02,10,51,18.60
2007,07,02,10,52,18.60
2007,07,02,10,53,18.50
2007,07,02,10,54,18.60
2007,07,02,10,55,18.50
2007,07,02,10,56,18.50
2007,07,02,10,57,18.50
2007,07,02,10,58,18.50
2007,07,02,10,59,18.40
2007,07,02,11,00,18.40
2007,07,02,11,01,18.40
2007,07,02,11,02,18.50
2007,07,02,11,03,18.50
2007,07,02,11,04,18.50
2007,07,02,11,05,18.50
2007,07,02,11,06,18.50
2007,07,02,11,07,18.60
2007,07,02,11,08,18.60
2007,07,02,11,09,18.60
2007,07,02,11,10,18.60
2007,07,02,11,11,18.60
2007,07,02,11,12,18.60
2007,07,02,11,13,18.60
2007,07,02,11,14,18.60
2007,07,02,11,15,18.50
2007,07,02,11,16,18.50
2007,07,02,11,17,18.50
2007,07,02,11,18,18.50
2007,07,02,11,19,18.50
2007,07,02,11,20,18.60
2007,07,02,11,21,18.60
2007,07,02,11,22,18.60
2007,07,02,11,23,18.60
2007,07,02,11,24,18.60
2007,07,02,11,25,18.60
2007,07,02,11,26,18.60
2007,07,02,11,27,18.60
2007,07,02,11,28,18.50
2007,07,02,11,29,18.50
2007,07,02,11,30,18.50
2007,07,02,11,31,18.40
2007,07,02,11,32,18.40
2007,07,02,11,33,18.40
2007,07,02,11,34,18.40
2007,07,02,11,35,18.40
2007,07,02,11,36,18.30
2007,07,02,11,37,18.20
2007,07,02,11,38,18.20
2007,07,02,11,39,18.20
2007,07,02,11,40,18.20
2007,07,02,11,41,18.20
2007,07,02,11,42,18.20
2007,07,02,11,43,18.30
2007,07,02,11,44,18.20
2007,07,02,11,45,18.20
2007,07,02,11,46,18.20
2007,07,02,11,47,18.20
2007,07,02,11,48,18.20
2007,07,02,11,49,18.20
2007,07,02,11,50,18.20
2007,07,02,11,51,18.30
2007,07,02,11,52,18.30
2007,07,02,11,53,18.30
2007,07,02,11,54,18.30
2007,07,02,11,55,18.30
2007,07,02,11,56,18.30
2007,07,02,11,57,18.30
2007,07,02,11,58,18.30
2007,07,02,11,59,18.30
2007,07,02,12,00,18.40
2007,07,02,12,01,18.40
2007,07,02,12,02,18.40
2007,07,02,12,03,18.50
2007,07,02,12,04,18.50
2007,07,02,12,05,18.60
2007,07,02,12,06,18.60
2007,07,02,12,07,18.60
2007,07,02,12,08,18.60
2007,07,02,12,09,18.60
2007,07,02,12,10,18.60
2007,07,02,12,11,18.60
2007,07,02,12,12,18.60
2007,07,02,12,13,18.70
2007,07,02,12,14,18.70
2007,07,02,12,15,18.60
2007,07,02,12,16,18.60
2007,07,02,12,17,18.60
2007,07,02,12,18,18.60
2007,07,02,12,19,18.60
2007,07,02,12,20,18.60
2007,07,02,12,21,18.60
2007,07,02,12,22,18.60
2007,07,02,12,23,18.60
2007,07,02,12,24,18.50
2007,07,02,12,25,18.50
2007,07,02,12,26,18.40
2007,07,02,12,27,18.40
2007,07,02,12,28,18.40
2007,07,02,12,29,18.50
2007,07,02,12,30,18.60
2007,07,02,12,31,18.70
2007,07,02,12,32,18.70
2007,07,02,12,33,18.80
2007,07,02,12,34,18.80
2007,07,02,12,35,18.80
2007,07,02,12,36,18.90
2007,07,02,12,37,18.90
2007,07,02,12,38,18.90
2007,07,02,12,39,18.90
2007,07,02,12,40,18.90
2007,07,02,12,41,18.90
2007,07,02,12,42,18.90
2007,07,02,12,43,18.90
2007,07,02,12,44,18.80
2007,07,02,12,45,18.80
2007,07,02,12,46,18.80
2007,07,02,12,47,18.90
2007,07,02,12,48,18.90
2007,07,02,12,49,18.90
2007,07,02,12,50,19.00
2007,07,02,12,51,19.10
2007,07,02,12,52,19.10
2007,07,02,12,53,19.20
2007,07,02,12,54,19.20
2007,07,02,12,55,19.30
2007,07,02,12,56,19.30
2007,07,02,12,57,19.40
2007,07,02,12,58,19.50
2007,07,02,12,59,19.50
2007,07,02,13,00,19.50
2007,07,02,13,01,19.60
2007,07,02,13,02,19.60
2007,07,02,13,03,19.60
2007,07,02,13,04,19.60
2007,07,02,13,05,19.60
2007,07,02,13,06,19.70
2007,07,02,13,07,19.70
2007,07,02,13,08,19.70
2007,07,02,13,09,19.70
2007,07,02,13,10,19.70
2007,07,02,13,11,19.80
2007,07,02,13,12,19.80
2007,07,02,13,13,19.90
2007,07,02,13,14,19.90
2007,07,02,13,15,19.90
2007,07,02,13,16,19.80
2007,07,02,13,17,19.80
2007,07,02,13,18,19.80
2007,07,02,13,19,19.90
2007,07,02,13,20,19.90
2007,07,02,13,21,19.90
2007,07,02,13,22,20.00
2007,07,02,13,23,20.10
2007,07,02,13,24,20.20
2007,07,02,13,25,20.20
2007,07,02,13,26,20.30
2007,07,02,13,27,20.30
2007,07,02,13,28,20.30
2007,07,02,13,29,20.40
2007,07,02,13,30,20.40
2007,07,02,13,31,20.40
2007,07,02,13,32,20.40
2007,07,02,13,33,20.30
2007,07,02,13,34,20.30
2007,07,02,13,35,20.40
2007,07,02,13,36,20.50
2007,07,02,13,37,20.50
2007,07,02,13,38,20.50
2007,07,02,13,39,20.40
2007,07,02,13,40,20.40
2007,07,02,13,41,20.50
2007,07,02,13,42,20.60
2007,07,02,13,43,20.70
2007,07,02,13,44,20.70
2007,07,02,13,45,20.80
2007,07,02,13,46,20.80
2007,07,02,13,47,20.90
2007,07,02,13,48,20.90
2007,07,02,13,49,20.90
2007,07,02,13,50,21.10
2007,07,02,13,51,21.20
2007,07,02,13,52,21.10
2007,07,02,13,53,21.20
2007,07,02,13,54,21.10
2007,07,02,13,55,21.00
2007,07,02,13,56,21.00
2007,07,02,13,57,20.90
2007,07,02,13,58,21.00
2007,07,02,13,59,21.00
2007,07,02,14,00,20.90
2007,07,02,14,01,20.90
2007,07,02,14,02,20.90
2007,07,02,14,03,20.90
2007,07,02,14,04,20.90
2007,07,02,14,05,20.90
2007,07,02,14,06,21.10
2007,07,02,14,07,21.10
2007,07,02,14,08,21.00
2007,07,02,14,09,21.00
2007,07,02,14,10,21.00
2007,07,02,14,11,21.10
2007,07,02,14,12,21.30
2007,07,02,14,13,21.40
2007,07,02,14,14,21.40
2007,07,02,14,15,21.40
2007,07,02,14,16,21.40
2007,07,02,14,17,21.40
2007,07,02,14,18,21.30
2007,07,02,14,19,21.20
2007,07,02,14,20,21.10
2007,07,02,14,21,21.10
2007,07,02,14,22,21.10
2007,07,02,14,23,21.20
2007,07,02,14,24,21.20
2007,07,02,14,25,21.30
2007,07,02,14,26,21.30
2007,07,02,14,27,21.20
2007,07,02,14,28,21.10
2007,07,02,14,29,21.20
2007,07,02,14,30,21.20
2007,07,02,14,31,21.20
2007,07,02,14,32,21.20
2007,07,02,14,33,21.20
2007,07,02,14,34,21.10
2007,07,02,14,35,21.00
2007,07,02,14,36,20.90
2007,07,02,14,37,20.90
2007,07,02,14,38,20.80
2007,07,02,14,39,20.70
2007,07,02,14,40,20.70
2007,07,02,14,41,20.70
2007,07,02,14,42,20.70
2007,07,02,14,43,20.60
2007,07,02,14,44,20.60
2007,07,02,14,45,20.60
2007,07,02,14,46,20.70
2007,07,02,14,47,20.80
2007,07,02,14,48,20.80
2007,07,02,14,49,20.90
2007,07,02,14,50,20.90
2007,07,02,14,51,21.00
2007,07,02,14,52,21.10
2007,07,02,14,53,21.20
2007,07,02,14,54,21.20
2007,07,02,14,55,21.20
2007,07,02,14,56,21.10
2007,07,02,14,57,21.10
2007,07,02,14,58,21.10
2007,07,02,14,59,21.10
2007,07,02,15,00,21.00
2007,07,02,15,01,20.90
2007,07,02,15,02,20.80
2007,07,02,15,03,20.70
2007,07,02,15,04,20.60
2007,07,02,15,05,20.60
2007,07,02,15,06,20.60
2007,07,02,15,07,20.50
2007,07,02,15,08,20.40
2007,07,02,15,09,20.30
2007,07,02,15,10,20.40
2007,07,02,15,11,20.40
2007,07,02,15,12,20.50
2007,07,02,15,13,20.40
2007,07,02,15,14,20.40
2007,07,02,15,15,20.40
2007,07,02,15,16,20.40
2007,07,02,15,17,20.40
2007,07,02,15,18,20.30
2007,07,02,15,19,20.30
2007,07,02,15,20,20.20
2007,07,02,15,21,20.20
2007,07,02,15,22,20.20
2007,07,02,15,23,20.20
2007,07,02,15,24,20.20
2007,07,02,15,25,20.20
2007,07,02,15,26,20.10
2007,07,02,15,27,20.20
2007,07,02,15,28,20.10
2007,07,02,15,29,20.10
2007,07,02,15,30,20.00
2007,07,02,15,31,19.90
2007,07,02,15,32,19.90
2007,07,02,15,33,19.90
2007,07,02,15,34,19.90
2007,07,02,15,35,19.90
2007,07,02,15,36,19.90
2007,07,02,15,37,19.90
2007,07,02,15,38,19.90
2007,07,02,15,39,19.90
2007,07,02,15,40,19.90
2007,07,02,15,41,19.90
2007,07,02,15,42,19.90
2007,07,02,15,43,19.90
2007,07,02,15,44,20.00
2007,07,02,15,45,20.10
2007,07,02,15,46,20.10
2007,07,02,15,47,20.10
2007,07,02,15,48,20.10
2007,07,02,15,49,20.10
2007,07,02,15,50,20.10
2007,07,02,15,51,20.20
2007,07,02,15,52,20.30
2007,07,02,15,53,20.30
2007,07,02,15,54,20.40
2007,07,02,15,55,20.50
2007,07,02,15,56,20.60
2007,07,02,15,57,20.70
2007,07,02,15,58,20.80
2007,07,02,15,59,20.80
2007,07,02,16,00,20.80
2007,07,02,16,01,20.90
2007,07,02,16,02,20.90
2007,07,02,16,03,20.90
2007,07,02,16,04,20.80
2007,07,02,16,05,20.80
2007,07,02,16,06,20.80
2007,07,02,16,07,20.60
2007,07,02,16,08,20.50
2007,07,02,16,09,20.40
2007,07,02,16,10,20.40
2007,07,02,16,11,20.30
2007,07,02,16,12,20.30
2007,07,02,16,13,20.30
2007,07,02,16,14,20.30
2007,07,02,16,15,20.40
2007,07,02,16,16,20.40
2007,07,02,16,17,20.40
2007,07,02,16,18,20.50
2007,07,02,16,19,20.60
2007,07,02,16,20,20.70
2007,07,02,16,21,20.80
2007,07,02,16,22,20.80
2007,07,02,16,23,21.00
2007,07,02,16,24,21.00
2007,07,02,16,25,21.00
2007,07,02,16,26,21.00
2007,07,02,16,27,21.00
2007,07,02,16,28,21.10
2007,07,02,16,29,21.20
2007,07,02,16,30,21.20
2007,07,02,16,31,21.30
2007,07,02,16,32,21.40
2007,07,02,16,33,21.50
2007,07,02,16,34,21.70
2007,07,02,16,35,21.90
2007,07,02,16,36,21.90
2007,07,02,16,37,22.00
2007,07,02,16,38,22.20
2007,07,02,16,39,22.30
2007,07,02,16,40,22.30
2007,07,02,16,41,22.30
2007,07,02,16,42,22.30
2007,07,02,16,43,22.20
2007,07,02,16,44,22.20
2007,07,02,16,45,22.20
2007,07,02,16,46,22.10
2007,07,02,16,47,22.10
2007,07,02,16,48,22.10
2007,07,02,16,49,22.10
2007,07,02,16,50,22.10
2007,07,02,16,51,22.10
2007,07,02,16,52,22.00
2007,07,02,16,53,22.10
2007,07,02,16,54,22.20
2007,07,02,16,55,22.30
2007,07,02,16,56,22.40
2007,07,02,16,57,22.50
2007,07,02,16,58,22.50
2007,07,02,16,59,22.40
2007,07,02,17,00,22.40
2007,07,02,17,01,22.40
2007,07,02,17,02,22.40
2007,07,02,17,03,22.40
2007,07,02,17,04,22.40
2007,07,02,17,05,22.40
2007,07,02,17,06,22.40
2007,07,02,17,07,22.40
2007,07,02,17,08,22.40
2007,07,02,17,09,22.30
2007,07,02,17,10,22.30
2007,07,02,17,11,22.20
2007,07,02,17,12,22.20
2007,07,02,17,13,22.20
2007,07,02,17,14,22.20
2007,07,02,17,15,22.20
2007,07,02,17,16,22.20
2007,07,02,17,17,22.20
2007,07,02,17,18,22.10
2007,07,02,17,19,22.20